Weather History for Crestview, FL

Change the Weather History Date:

Saturday, July 6, 2013

  Actual Average Record
Temperature  
Mean Temperature 74 °F -  
Max Temperature 78 °F - - ()
Min Temperature 71 °F - - ()
Cooling Degree Days 10    
Growing Degree Days 24 (Base 50)    
Moisture  
Dew Point 73 °F    
Average Humidity 94    
Maximum Humidity 100    
Minimum Humidity 77    
Precipitation  
Precipitation 0.93 in - - ()
Sea Level Pressure  
Sea Level Pressure 30.06 in    
Wind  
Wind Speed 6 mph (SE)    
Max Wind Speed 10 mph    
Max Gust Speed -    
Visibility 8 miles    
Events Rain    
T = Trace of Precipitation, MM = Missing Value Source: NWS Daily Summary

Daily Weather History Graph

Daily Weather History Graph

Search for Another Location

Airport:

Trip Planner

Search our weather history database for the weather conditions in past years. The results will help you decide how hot, cold, wet, or windy it might be!

Date:

Astronomy

Jul. 06, 2013 Rise Set
Actual Time 5:49 AM CDT 7:52 PM CDT
Civil Twilight 5:21 AM CDT 8:19 PM CDT
Nautical Twilight 4:48 AM CDT 8:53 PM CDT
Astronomical Twilight 4:12 AM CDT 9:28 PM CDT
Moon 4:31 AM CDT (7/6) 6:37 PM CDT (7/6)
Length of Visible Light 14h 58m
Length of Day
14h 03m
Waning Crescent, 2% of the Moon is Illuminated
Jul 6
Waning Crescent
Jul 8
New
Jul 15
First Quarter
Jul 22
Full
Jul 29
Last Quarter

Hourly Weather History & Observations

Time (CDT) Temp. Dew Point Humidity Pressure Visibility Wind Dir Wind Speed Gust Speed Precip Events Conditions
12:58 AM 71.6 °F 69.8 °F 94% 30.04 in 10.0 mi SE 9.2 mph - N/A   Scattered Clouds
1:58 AM 71.8 °F 70.9 °F 97% 30.04 in 10.0 mi Variable 5.8 mph - N/A   Scattered Clouds
2:03 AM 71.6 °F 71.6 °F 100% 30.03 in 10.0 mi ESE 6.9 mph - N/A   Partly Cloudy
2:28 AM 71.6 °F 71.6 °F 100% 30.03 in 10.0 mi ESE 5.8 mph - N/A   Mostly Cloudy
2:48 AM 71.6 °F 71.6 °F 100% 30.02 in 10.0 mi ESE 6.9 mph - N/A   Scattered Clouds
2:58 AM 72.1 °F 72.0 °F 99% 30.03 in 10.0 mi ESE 5.8 mph - N/A   Scattered Clouds
3:58 AM 72.5 °F 72.1 °F 99% 30.03 in 10.0 mi East 4.6 mph - N/A   Partly Cloudy
4:43 AM 73.4 °F 71.6 °F 94% 30.03 in 10.0 mi ENE 2.3 mph - N/A   Mostly Cloudy
4:48 AM 73.4 °F 71.6 °F 94% 30.03 in 10.0 mi ENE 2.3 mph - N/A   Mostly Cloudy
4:58 AM 72.9 °F 72.5 °F 99% 30.04 in 10.0 mi NE 1.2 mph - N/A   Mostly Cloudy
5:03 AM 73.4 °F 73.4 °F 100% 30.04 in 9.0 mi ENE 2.3 mph - N/A   Overcast
5:23 AM 73.4 °F 73.4 °F 100% 30.04 in 9.0 mi East 4.6 mph - N/A   Overcast
5:33 AM 73.4 °F 73.4 °F 100% 30.04 in 10.0 mi East 3.5 mph - N/A   Overcast
5:58 AM 73.8 °F 73.4 °F 99% 30.05 in 10.0 mi ENE 2.3 mph - N/A   Overcast
6:58 AM 74.5 °F 74.3 °F 99% 30.06 in 10.0 mi East 3.5 mph - N/A   Overcast
7:33 AM 75.2 °F 73.4 °F 94% 30.05 in 10.0 mi East 5.8 mph - N/A   Overcast
7:58 AM 76.6 °F 73.8 °F 91% 30.06 in 10.0 mi East 8.1 mph - N/A   Overcast
8:38 AM 77.0 °F 73.4 °F 89% 30.05 in 10.0 mi East 8.1 mph - N/A   Overcast
8:58 AM 78.3 °F 73.2 °F 84% 30.06 in 10.0 mi East 9.2 mph - N/A   Mostly Cloudy
9:13 AM 78.8 °F 73.4 °F 83% 30.06 in 10.0 mi East 6.9 mph - N/A   Scattered Clouds
9:23 AM 78.8 °F 73.4 °F 83% 30.06 in 10.0 mi East 5.8 mph - N/A   Mostly Cloudy
9:38 AM 78.8 °F 73.4 °F 83% 30.07 in 10.0 mi Variable 5.8 mph - N/A   Scattered Clouds
9:39 AM 78.8 °F 73.4 °F 83% 30.07 in 9.0 mi ESE 5.8 mph - N/A Rain Light Rain
9:49 AM 77.0 °F 75.2 °F 94% 30.07 in 3.0 mi ESE 5.8 mph - N/A Rain Rain
9:54 AM 77.0 °F 75.2 °F 94% 30.07 in 5.0 mi ESE 5.8 mph - N/A Rain Light Rain
9:58 AM 77.0 °F 74.7 °F 92% 30.08 in 8.0 mi SE 5.8 mph - 0.04 in Rain Light Rain
10:08 AM 77.0 °F 75.2 °F 94% 30.07 in 2.5 mi SE 5.8 mph - N/A Rain Heavy Rain
10:13 AM 77.0 °F 75.2 °F 94% 30.07 in 2.0 mi SE 5.8 mph - N/A Rain Heavy Rain
10:18 AM 77.0 °F 75.2 °F 94% 30.07 in 2.5 mi ESE 6.9 mph - N/A Rain Rain
10:23 AM 75.2 °F 75.2 °F 100% 30.07 in 5.0 mi SE 5.8 mph - N/A Rain Light Rain
10:30 AM 75.2 °F 73.4 °F 94% 30.07 in 10.0 mi South 8.1 mph - N/A   Scattered Clouds
10:34 AM 75.2 °F 73.4 °F 94% 30.07 in 6.0 mi South 10.4 mph - N/A Rain Light Rain
10:39 AM 75.2 °F 73.4 °F 94% 30.07 in 2.5 mi SSE 8.1 mph - N/A Rain Heavy Rain
10:49 AM 75.2 °F 73.4 °F 94% 30.07 in 4.0 mi SE 5.8 mph - N/A Rain Rain
10:58 AM 74.5 °F 72.3 °F 93% 30.08 in 6.0 mi South 4.6 mph - 0.16 in Rain Light Rain
11:08 AM 73.4 °F 71.6 °F 94% 30.07 in 2.0 mi South 8.1 mph - N/A Rain Heavy Rain
11:13 AM 73.4 °F 71.6 °F 94% 30.07 in 1.5 mi South 5.8 mph - N/A Rain Heavy Rain
11:28 AM 73.4 °F 73.4 °F 100% 30.07 in 2.5 mi SSE 4.6 mph - N/A Rain Rain
11:38 AM 73.4 °F 73.4 °F 100% 30.07 in 2.0 mi SSE 6.9 mph - N/A Rain Heavy Rain
11:48 AM 73.4 °F 73.4 °F 100% 30.07 in 1.2 mi SE 5.8 mph - N/A Rain Heavy Rain
11:58 AM 73.4 °F 71.6 °F 94% 30.08 in 1.5 mi SSE 3.5 mph - 0.39 in Rain Rain
12:03 PM 73.4 °F 73.4 °F 100% 30.07 in 2.5 mi South 4.6 mph - N/A Rain Rain
12:08 PM 73.4 °F 73.4 °F 100% 30.07 in 4.0 mi SSW 5.8 mph - N/A Rain Light Rain
12:13 PM 73.4 °F 71.6 °F 94% 30.08 in 5.0 mi WSW 8.1 mph - N/A Rain Rain
12:58 PM 73.2 °F 72.3 °F 97% 30.09 in 4.0 mi SW 3.5 mph - 0.11 in Rain Rain
1:13 PM 73.4 °F 73.4 °F 100% 30.08 in 2.5 mi West 3.5 mph - N/A Rain Rain
1:18 PM 73.4 °F 73.4 °F 100% 30.08 in 1.8 mi WSW 4.6 mph - N/A Rain Heavy Rain
1:33 PM 73.4 °F 73.4 °F 100% 30.08 in 3.0 mi WSW 4.6 mph - N/A Rain Rain
1:53 PM 73.4 °F 73.4 °F 100% 30.07 in 10.0 mi West 3.5 mph - N/A   Light Drizzle
1:58 PM 73.6 °F 73.4 °F 99% 30.08 in 10.0 mi West 4.6 mph - 0.22 in Rain Light Rain
2:07 PM 75.2 °F 73.4 °F 94% 30.07 in 10.0 mi West 6.9 mph - N/A   Partly Cloudy
2:34 PM 77.0 °F 71.6 °F 83% 30.06 in 10.0 mi NW 8.1 mph - N/A Rain Light Rain
2:46 PM 77.0 °F 71.6 °F 83% 30.06 in 10.0 mi West 5.8 mph - N/A   Mostly Cloudy
2:58 PM 77.9 °F 71.6 °F 81% 30.06 in 10.0 mi WNW 6.9 mph - 0.01 in   Mostly Cloudy
3:58 PM 78.4 °F 70.9 °F 77% 30.04 in 10.0 mi North 2.3 mph - N/A   Clear
4:58 PM 78.1 °F 72.9 °F 84% 30.06 in 10.0 mi East 5.8 mph - N/A   Clear
5:17 PM 77.0 °F 73.4 °F 89% 30.04 in 10.0 mi East 3.5 mph - N/A   Light Drizzle
5:26 PM 77.0 °F 73.4 °F 89% 30.03 in 10.0 mi East 3.5 mph - N/A   Clear
5:51 PM 77.0 °F 73.4 °F 89% 30.04 in 10.0 mi ESE 5.8 mph - N/A   Mostly Cloudy
5:56 PM 77.0 °F 73.4 °F 89% 30.04 in 10.0 mi ESE 4.6 mph - N/A   Scattered Clouds
5:58 PM 77.0 °F 73.4 °F 89% 30.04 in 10.0 mi ESE 5.8 mph - 0.00 in   Scattered Clouds
6:48 PM 77.0 °F 71.6 °F 83% 30.05 in 10.0 mi ESE 8.1 mph - N/A   Mostly Cloudy
6:53 PM 77.0 °F 71.6 °F 83% 30.05 in 10.0 mi ESE 6.9 mph - N/A   Scattered Clouds
6:58 PM 76.3 °F 72.5 °F 88% 30.06 in 10.0 mi SE 3.5 mph - N/A   Mostly Cloudy
7:08 PM 75.2 °F 73.4 °F 94% 30.05 in 10.0 mi Variable 2.3 mph - N/A   Scattered Clouds
7:48 PM 75.2 °F 73.4 °F 94% 30.06 in 10.0 mi SE 3.5 mph - N/A   Mostly Cloudy
7:58 PM 75.0 °F 73.4 °F 95% 30.06 in 10.0 mi ESE 5.8 mph - N/A   Mostly Cloudy
8:08 PM 75.2 °F 73.4 °F 94% 30.06 in 10.0 mi SE 5.8 mph - N/A   Mostly Cloudy
8:38 PM 75.2 °F 73.4 °F 94% 30.07 in 10.0 mi SE 3.5 mph - N/A   Mostly Cloudy
8:43 PM 75.2 °F 73.4 °F 94% 30.07 in 10.0 mi SE 3.5 mph - N/A   Mostly Cloudy
8:58 PM 74.3 °F 73.0 °F 96% 30.08 in 10.0 mi ESE 4.6 mph - N/A   Scattered Clouds
9:06 PM 73.4 °F 73.4 °F 100% 30.07 in 10.0 mi SE 3.5 mph - N/A   Scattered Clouds
9:58 PM 73.8 °F 73.2 °F 98% 30.09 in 10.0 mi ESE 4.6 mph - N/A   Scattered Clouds
10:58 PM 73.2 °F 72.9 °F 99% 30.09 in 10.0 mi ESE 2.3 mph - N/A   Partly Cloudy
11:58 PM 72.9 °F 72.5 °F 99% 30.09 in 10.0 mi East 1.2 mph - N/A   Scattered Clouds